User: anonymous   Login
Location: Unspecified
(0.0000°N, 0.0000°E)
Time: 18:08:25
(UTC+00:00)
Language:

SPARK 1 - Orbit

View from above orbital plane
View from above orbital plane
View from above satellite
View from above satellite

Ground track
Ground track

The orbit is defined by the following mean orbital elements,

1 41900U          26145.45685130 +.00000000 +00000-0 +12998-3 0 00009
2 41900  98.5481 139.2417 0024396  32.9707 327.3008 14.59757594    09
Epoch (UTC): 25 May 2026 10:57:51
Eccentricity: 0.0024396
inclination: 98.5481°
perigee height: 677 km
apogee height: 711 km
right ascension of ascending node: 139.2417°
argument of perigee: 32.9707°
revolutions per day: 14.59757594
mean anomaly at epoch: 327.3008°

The dashed part of the orbit path shows where the satellite is in the earth's shadow,  

DLR